Miscellaneous Local Product
Issued by NWS Hastings, NE

Home | Current Version | Previous Version | Graphics & Text | Print | Product List | Glossary On
Versions: 1 2 3 4 5 6 7 8 9 10 11 12 13 14 15 16 17 18 19 20 21 22 23 24 25 26 27 28 29 30 31 32 33 34 35 36 37 38 39 40 41 42 43 44 45 46 47 48 49 50
000
AXUS43 KGID 041202
MISGRI

GID CWA HOURLY WEATHER ROUNDUP
NATIONAL WEATHER SERVICE HASTINGS NE
600 AM CST WED MAR 04 2015

NOTE: "FAIR" INDICATES FEW OR NO CLOUDS BELOW 12,000 FEET WITH NO
SIGNIFICANT WEATHER AND/OR OBSTRUCTIONS TO VISIBILITY.

...SOUTH CENTRAL NEBRASKA...

CITY           SKY/WX    TMP DP  RH WIND       PRES   REMARKS
GRAND ISLAND   PTCLDY    11   6  81 W7        30.23R WCI   0
HASTINGS       PTCLDY    10   6  84 NW7       30.21R WCI  -1
KEARNEY        PTCLDY    10   7  85 NW5       30.21R WCI   2
ORD            PTCLDY     8   0  69 SW3       30.19R
YORK           CLOUDY    12  10  92 NW7       30.22R WCI   2
AURORA         PTCLDY    10   6  85 W5        30.22R WCI   2
LEXINGTON      MOCLDY    10   7  87 W8        30.20R WCI  -2
HOLDREGE       MOCLDY    13  10  85 NW6       30.20R WCI   4
HEBRON         MOCLDY    14  11  87 NW3       30.25R

...NEBRASKA PANHANDLE...

CITY           SKY/WX    TMP DP  RH WIND       PRES   REMARKS
CHADRON        PTCLDY    -2  -9  72 SW7       30.14S WCI -15
ALLIANCE       PTCLDY     5  -2  72 NW7       30.10R WCI  -7
SCOTTSBLUFF    PTCLDY     8   3  80 NW8       30.13R WCI  -4
SIDNEY         CLOUDY     9   2  73 NW12      30.11R WCI  -6

...WESTERN AND NORTH CENTRAL NEBRASKA...

CITY           SKY/WX    TMP DP  RH WIND       PRES   REMARKS
VALENTINE      CLEAR      4  -1  80 NW6       30.15R WCI  -7
AINSWORTH      CLEAR      6   0  76 W9        30.14R WCI  -8
ONEILL         PTCLDY     7   2  79 W7        30.17R WCI  -4
BROKEN BOW     PTCLDY     9   3  77 W3        30.17R
IMPERIAL         N/A     14   7  73 NW5       30.17R WCI   6
NORTH PLATTE   PTCLDY     7   5  91 NW3       30.18R
MCCOOK         CLOUDY    17  12  80 CALM      30.21R

...EASTERN NEBRASKA...

CITY           SKY/WX    TMP DP  RH WIND       PRES   REMARKS
NORFOLK        PTCLDY    14   4  64 W5        30.20R WCI   6
SO SIOUX CITY  PTCLDY    10   4  76 W3        30.23R
TEKAMAH        PTCLDY    14   6  70 CALM      30.25R
COLUMBUS       PTCLDY    12   0  57 NW5       30.23R WCI   4
ALBION         PTCLDY    12   3  67 NW5       30.20R WCI   4
OMAHA EPPLEY   CLOUDY    15   7  70 N3        30.26R
OFFUTT AFB     PTCLDY    14   9  82 CALM      30.24R
MILLARD        FAIR      16   8  73 CALM      30.24R
LINCOLN        MOCLDY    14  11  87 CALM      30.26R
NEBRASKA CITY  CLEAR     13   9  83 NW5       30.24R WCI   5
BEATRICE       PTCLDY     6   4  91 NW5       30.25R WCI  -3
FALLS CITY     CLOUDY    18  11  74 N9        30.25R WCI   7

...NORTHERN KANSAS...

CITY           SKY/WX    TMP DP  RH WIND       PRES   REMARKS
GOODLAND       LGT SNOW  15  13  91 N9        30.13R FOG     WCI   3
HILL CITY      CLOUDY    17  12  80 N7        30.23R WCI   8
NORTON         PTSUNNY   14   9  79 NW8       30.20R WCI   3
PHILLIPSBURG   CLOUDY    19  16  86 NW6       30.24R WCI  11
SMITH CENTER   PTCLDY    16  12  86 CALM      30.25R
BELOIT         MOCLDY    19  14  79 N8        30.25R WCI   9
HAYS           CLOUDY    18   7  62 NE13      30.21R WCI   4
RUSSELL        LGT SNOW  18  14  84 N13       30.20R FOG     WCI   5
CONCORDIA      CLOUDY    19  14  81 N10       30.22R WCI   7
SALINA         CLOUDY    22   9  57 N15       30.23R WCI   9
TOPEKA         CLOUDY    21   7  54 N20       30.24R WCI   6



USA.gov is the U.S. government's official web portal to all federal, state and local government web resources and services.